Home > Weather > West Palm Beach > Past weeks

Flag for U.S.A. Weather for the Past 2 Weeks in West Palm Beach, Florida, U.S.A.

Now
62 °F

Clear.


Feels Like: 62 °F
Forecast: 60 / 69 °F
Wind: 6 mph from North

Location: Palm Beach International Airport

Current Time: Feb 13, 2016 at 9:53:49 PM

Latest Report: Feb 13, 2016 at 8:53 PM


Visibility: 10 mi

Pressure: 30.22 "Hg

Humidity: 73%

Dew point: 53 °F

Location of West Palm BeachLocation

Historic Weather in West Palm Beach — Graph

°F

West Palm Beach Temperature Yesterday

Maximum temperature yesterday: 73 °F (at 12:53 PM)
Minimum temperature yesterday: 50 °F (at 1:53 AM)
Average temperature yesterday: 62 °F

High & Low Weather Summary for the Past Weeks

 TemperatureHumidityPressure
High91 °F (Feb 3, 12:53 PM)97% (Feb 2, 12:53 AM)30.35 "Hg (Feb 2, 12:53 AM)
Low42 °F (Feb 11, 4:53 AM)22% (Feb 11, 10:53 AM)29.92 "Hg (Feb 9, 2:53 AM)
Average65 °F68%30.12 "Hg
* Reported Jan 29 7:53 PM — Feb 13 7:53 PM, West Palm Beach, Weather by CustomWeather, © 2016

Note: Actual official high and low records may vary slightly from our data, if they occured in-between our weather recording intervals... More about our weather records

Advertising

West Palm Beach Weather History for the Previous 24 Hours

 ConditionsComfort  
Time TempWeatherWind HumidityBarometerVisibility
7:53 PM
Sat, Feb 13
64 °FClear.8 mph68%30.21 "Hg10 mi
6:53 PM66 °FPassing clouds.7 mph61%30.19 "Hg10 mi
5:53 PM69 °FScattered clouds.9 mph55%30.19 "Hg10 mi
4:53 PM70 °FScattered clouds.13 mph55%30.17 "Hg10 mi
3:53 PM72 °FScattered clouds.12 mph48%30.16 "Hg10 mi
2:53 PM74 °FScattered clouds.9 mph45%30.16 "Hg10 mi
1:53 PM72 °FScattered clouds.8 mph48%30.17 "Hg10 mi
12:53 PM74 °FScattered clouds.12 mph50%30.20 "Hg10 mi
11:53 AM72 °FPassing clouds.10 mph57%30.23 "Hg10 mi
10:53 AM70 °FScattered clouds.15 mph64%30.26 "Hg10 mi
9:53 AM67 °FPassing clouds.15 mph73%30.25 "Hg10 mi
8:53 AM63 °FPassing clouds.8 mph81%30.24 "Hg10 mi
7:53 AM56 °FPassing clouds.3 mph93%30.23 "Hg10 mi
6:53 AM53 °FPassing clouds.5 mph93%30.22 "Hg10 mi
5:53 AM54 °FClear.5 mph93%30.20 "Hg10 mi
4:53 AM53 °FClear.5 mph93%30.18 "Hg10 mi
3:53 AM53 °FClear.5 mph89%30.18 "Hg10 mi
2:53 AM51 °FClear.5 mph86%30.19 "Hg10 mi
1:53 AM55 °FClear.No wind77%30.20 "Hg10 mi
12:53 AM58 °FClear.3 mph72%30.21 "Hg10 mi
11:53 PM
Fri, Feb 12
59 °FClear.5 mph75%30.22 "Hg10 mi
10:53 PM60 °FClear.8 mph80%30.22 "Hg10 mi
9:53 PM61 °FClear.6 mph78%30.22 "Hg10 mi
Weather by CustomWeather, © 2016

See weather overviewHow to use our weather pages